LOT29SA EPGD-EPLB

Flight info

Callsign LOT29SA
Flight time 0h 55m
Altitude 19000
Route IRLUN N133 BIBKA Z96 LASGU/N0427F330 N191 UNELO/N0431F350 N191 SORIX N195 VENES
Aircraft E75L/M-SDE3GILORVW/S

Departure

Time 2026-05-07 15:10
Airport Gdańsk Lech Wałęsa Airport (EPGD)

Arrival

Time 2026-05-07 16:06
Airport Lublin Airport (EPLB)
Time Latitude Longitude Altitude Speed Heading
2026-05-07 14:43 54.38111 18.46155 457 ft 0 kts 23°
2026-05-07 15:01 54.38113 18.46156 457 ft 0 kts 23°
2026-05-07 15:02 54.38119 18.46161 457 ft 3 kts 23°
2026-05-07 15:02 54.38154 18.46187 457 ft 3 kts 33°
2026-05-07 15:03 54.38159 18.46224 457 ft 5 kts 97°
2026-05-07 15:03 54.38146 18.46295 457 ft 7 kts 111°
2026-05-07 15:03 54.38123 18.46389 457 ft 11 kts 113°
2026-05-07 15:03 54.38087 18.46535 456 ft 15 kts 112°
2026-05-07 15:04 54.38019 18.46604 457 ft 12 kts 198°
2026-05-07 15:04 54.37964 18.46587 455 ft 13 kts 163°
2026-05-07 15:04 54.37917 18.46701 456 ft 13 kts 112°
2026-05-07 15:04 54.37875 18.46871 455 ft 18 kts 114°
2026-05-07 15:05 54.37822 18.47084 457 ft 20 kts 111°
2026-05-07 15:05 54.37774 18.47308 456 ft 21 kts 112°
2026-05-07 15:05 54.37719 18.47496 458 ft 16 kts 113°
2026-05-07 15:05 54.37675 18.47675 461 ft 16 kts 113°
2026-05-07 15:06 54.37635 18.47836 466 ft 16 kts 112°
2026-05-07 15:06 54.37596 18.48005 470 ft 15 kts 111°
2026-05-07 15:06 54.37558 18.48142 471 ft 11 kts 111°
2026-05-07 15:06 54.37525 18.48279 475 ft 15 kts 113°
2026-05-07 15:07 54.37480 18.48464 482 ft 19 kts 112°
2026-05-07 15:07 54.37424 18.48691 486 ft 23 kts 112°
2026-05-07 15:07 54.37356 18.48963 489 ft 26 kts 113°
2026-05-07 15:07 54.37291 18.49146 489 ft 15 kts 162°
2026-05-07 15:08 54.37240 18.49138 493 ft 0 kts 201°
2026-05-07 15:09 54.37231 18.49132 493 ft 4 kts 201°
2026-05-07 15:09 54.37193 18.49099 493 ft 9 kts 217°
2026-05-07 15:09 54.37173 18.48998 492 ft 12 kts 282°
2026-05-07 15:10 54.37245 18.48694 486 ft 59 kts 294°
2026-05-07 15:10 54.37510 18.47624 463 ft 135 kts 292°
2026-05-07 15:10 54.37925 18.45870 766 ft 176 kts 295°
2026-05-07 15:10 54.38433 18.43805 1444 ft 206 kts 297°
2026-05-07 15:11 54.39022 18.41472 2058 ft 213 kts 298°
2026-05-07 15:11 54.39635 18.39158 2582 ft 214 kts 299°
2026-05-07 15:11 54.40296 18.36892 3153 ft 208 kts 303°
2026-05-07 15:11 54.40891 18.34719 3952 ft 201 kts 295°
2026-05-07 15:12 54.41368 18.32465 4608 ft 207 kts 295°
2026-05-07 15:12 54.41860 18.30189 5164 ft 217 kts 295°
2026-05-07 15:12 54.42432 18.27714 5768 ft 230 kts 296°
2026-05-07 15:12 54.43049 18.25149 6536 ft 236 kts 295°
2026-05-07 15:13 54.43324 18.22339 7312 ft 244 kts 264°
2026-05-07 15:13 54.42689 18.19641 8179 ft 249 kts 233°
2026-05-07 15:13 54.41331 18.17851 9103 ft 248 kts 207°
2026-05-07 15:13 54.39744 18.16647 9985 ft 251 kts 202°
2026-05-07 15:14 54.38105 18.15592 10772 ft 253 kts 200°
2026-05-07 15:14 54.36451 18.14840 11524 ft 259 kts 189°
2026-05-07 15:14 54.34566 18.15011 11874 ft 285 kts 166°
2026-05-07 15:14 54.32712 18.16489 12288 ft 307 kts 146°
2026-05-07 15:15 54.31166 18.19186 12745 ft 327 kts 130°
2026-05-07 15:15 54.29807 18.22351 13608 ft 332 kts 127°
2026-05-07 15:15 54.28429 18.25540 14455 ft 334 kts 134°
2026-05-07 15:15 54.26593 18.27913 15291 ft 332 kts 157°
2026-05-07 15:16 54.24456 18.29380 16209 ft 332 kts 162°
2026-05-07 15:16 54.22273 18.30736 17022 ft 336 kts 163°
2026-05-07 15:16 54.20055 18.32073 17838 ft 340 kts 163°
2026-05-07 15:16 54.17808 18.33405 18570 ft 344 kts 164°
2026-05-07 15:17 54.15519 18.34737 19078 ft 350 kts 164°
2026-05-07 15:17 54.13236 18.36045 19080 ft 352 kts 164°
2026-05-07 15:17 54.10934 18.37403 19056 ft 349 kts 162°
2026-05-07 15:17 54.08690 18.38927 19065 ft 346 kts 160°
2026-05-07 15:18 54.06468 18.40475 19052 ft 347 kts 160°
2026-05-07 15:18 54.04229 18.42009 19047 ft 347 kts 161°
2026-05-07 15:18 54.01987 18.43527 19044 ft 347 kts 161°
2026-05-07 15:18 53.99748 18.45033 19046 ft 347 kts 161°
2026-05-07 15:19 53.97500 18.46538 19047 ft 347 kts 161°
2026-05-07 15:19 53.95256 18.48038 19053 ft 347 kts 161°
2026-05-07 15:19 53.93012 18.49537 19055 ft 347 kts 161°
2026-05-07 15:19 53.90769 18.51033 19059 ft 347 kts 161°
2026-05-07 15:20 53.88524 18.52529 19057 ft 347 kts 161°
2026-05-07 15:20 53.86276 18.54025 19048 ft 347 kts 161°
2026-05-07 15:20 53.84031 18.55517 19044 ft 347 kts 161°
2026-05-07 15:20 53.81785 18.57007 19041 ft 347 kts 161°
2026-05-07 15:21 53.79548 18.58487 19025 ft 343 kts 161°
2026-05-07 15:21 53.77337 18.59953 19040 ft 340 kts 162°
2026-05-07 15:21 53.75130 18.61414 19041 ft 341 kts 162°
2026-05-07 15:21 53.72930 18.62920 19042 ft 342 kts 160°
2026-05-07 15:22 53.70749 18.64529 19032 ft 342 kts 160°
2026-05-07 15:22 53.68569 18.66141 19023 ft 342 kts 160°
2026-05-07 15:22 53.66385 18.67741 19022 ft 342 kts 160°
2026-05-07 15:22 53.64203 18.69327 19023 ft 342 kts 160°
2026-05-07 15:23 53.62019 18.70909 19029 ft 342 kts 160°
2026-05-07 15:23 53.59833 18.72489 19024 ft 342 kts 160°
2026-05-07 15:23 53.57649 18.74065 19022 ft 342 kts 160°
2026-05-07 15:23 53.55460 18.75642 19024 ft 342 kts 160°
2026-05-07 15:24 53.53276 18.77214 19022 ft 342 kts 160°
2026-05-07 15:24 53.51087 18.78765 19029 ft 339 kts 162°
2026-05-07 15:24 53.48887 18.79985 19030 ft 337 kts 166°
2026-05-07 15:24 53.46600 18.81104 19016 ft 338 kts 166°
2026-05-07 15:25 53.44394 18.82214 19021 ft 337 kts 166°
2026-05-07 15:25 53.42152 18.83378 19022 ft 337 kts 166°
2026-05-07 15:25 53.39912 18.84558 19022 ft 338 kts 165°
2026-05-07 15:25 53.37672 18.85741 19019 ft 337 kts 166°
2026-05-07 15:26 53.35431 18.86929 19018 ft 338 kts 166°
2026-05-07 15:26 53.33192 18.88117 19019 ft 338 kts 166°
2026-05-07 15:26 53.30951 18.89304 19016 ft 338 kts 166°
2026-05-07 15:26 53.28708 18.90491 19023 ft 338 kts 166°
2026-05-07 15:27 53.26466 18.91677 19013 ft 338 kts 166°
2026-05-07 15:27 53.24231 18.92880 19014 ft 339 kts 162°
2026-05-07 15:27 53.22175 18.94848 19023 ft 346 kts 143°
2026-05-07 15:27 53.20628 18.97972 19025 ft 357 kts 123°
2026-05-07 15:28 53.19863 19.01951 19020 ft 368 kts 100°
2026-05-07 15:28 53.19974 19.06247 19046 ft 374 kts 86°
2026-05-07 15:28 53.20372 19.10553 19058 ft 376 kts 84°
2026-05-07 15:28 53.20485 19.14854 18994 ft 367 kts 103°
2026-05-07 15:29 53.19633 19.18757 19028 ft 356 kts 127°
2026-05-07 15:29 53.17977 19.21697 19048 ft 345 kts 146°
2026-05-07 15:29 53.16058 19.24126 18982 ft 348 kts 148°
2026-05-07 15:29 53.14118 19.26519 19007 ft 348 kts 148°
2026-05-07 15:30 53.12185 19.28927 19005 ft 347 kts 147°
2026-05-07 15:30 53.10256 19.31342 18995 ft 347 kts 147°
2026-05-07 15:30 53.08326 19.33756 18997 ft 347 kts 147°
2026-05-07 15:30 53.06399 19.36169 19000 ft 347 kts 147°
2026-05-07 15:31 53.04472 19.38579 18998 ft 347 kts 147°
2026-05-07 15:31 53.02542 19.40990 18998 ft 347 kts 147°
2026-05-07 15:31 53.00614 19.43396 18998 ft 347 kts 147°
2026-05-07 15:31 52.98683 19.45803 18998 ft 347 kts 147°
2026-05-07 15:32 52.96753 19.48205 19002 ft 347 kts 147°
2026-05-07 15:32 52.94823 19.50606 19003 ft 347 kts 147°
2026-05-07 15:32 52.92892 19.53016 19000 ft 347 kts 147°
2026-05-07 15:32 52.90969 19.55420 19001 ft 347 kts 147°
2026-05-07 15:33 52.89039 19.57825 18977 ft 348 kts 147°
2026-05-07 15:33 52.87101 19.60235 18981 ft 349 kts 147°
2026-05-07 15:33 52.85165 19.62645 18987 ft 347 kts 148°
2026-05-07 15:33 52.83236 19.65039 18992 ft 347 kts 148°
2026-05-07 15:34 52.81311 19.67428 18999 ft 347 kts 148°
2026-05-07 15:34 52.79377 19.69822 18999 ft 347 kts 148°
2026-05-07 15:34 52.77445 19.72213 18994 ft 347 kts 148°
2026-05-07 15:34 52.75516 19.74597 18995 ft 347 kts 148°
2026-05-07 15:35 52.73584 19.76983 18995 ft 347 kts 148°
2026-05-07 15:35 52.71677 19.79335 18995 ft 347 kts 148°
2026-05-07 15:35 52.69757 19.81728 18987 ft 346 kts 144°
2026-05-07 15:35 52.67970 19.84431 19006 ft 351 kts 141°
2026-05-07 15:36 52.66212 19.87231 18988 ft 351 kts 141°
2026-05-07 15:36 52.64462 19.90032 18988 ft 351 kts 141°
2026-05-07 15:36 52.62714 19.92824 18990 ft 351 kts 141°
2026-05-07 15:36 52.60963 19.95616 18990 ft 351 kts 141°
2026-05-07 15:37 52.59205 19.98407 18989 ft 350 kts 141°
2026-05-07 15:37 52.57452 20.01187 18990 ft 350 kts 141°
2026-05-07 15:37 52.55698 20.03964 18988 ft 350 kts 141°
2026-05-07 15:37 52.53942 20.06742 18988 ft 350 kts 141°
2026-05-07 15:38 52.52185 20.09517 18988 ft 350 kts 141°
2026-05-07 15:38 52.50482 20.12204 18988 ft 349 kts 141°
2026-05-07 15:38 52.48730 20.14964 18989 ft 349 kts 141°
2026-05-07 15:38 52.46978 20.17724 18988 ft 349 kts 141°
2026-05-07 15:39 52.45225 20.20480 18994 ft 349 kts 141°
2026-05-07 15:39 52.43469 20.23239 18992 ft 349 kts 141°
2026-05-07 15:39 52.41714 20.25992 18987 ft 349 kts 141°
2026-05-07 15:39 52.39958 20.28744 18995 ft 350 kts 141°
2026-05-07 15:40 52.38200 20.31493 18983 ft 351 kts 141°
2026-05-07 15:40 52.36439 20.34248 18988 ft 350 kts 141°
2026-05-07 15:40 52.34675 20.37004 18985 ft 350 kts 141°
2026-05-07 15:40 52.32913 20.39751 18988 ft 350 kts 141°
2026-05-07 15:41 52.31148 20.42501 18983 ft 351 kts 141°
2026-05-07 15:41 52.29392 20.45235 18984 ft 351 kts 141°
2026-05-07 15:41 52.27626 20.47980 18985 ft 350 kts 141°
2026-05-07 15:41 52.25873 20.50702 18981 ft 350 kts 141°
2026-05-07 15:42 52.24107 20.53441 18989 ft 350 kts 141°
2026-05-07 15:42 52.22338 20.56181 18979 ft 351 kts 141°
2026-05-07 15:42 52.20570 20.58916 18980 ft 350 kts 141°
2026-05-07 15:42 52.18801 20.61650 18980 ft 350 kts 141°
2026-05-07 15:43 52.17024 20.64390 18989 ft 354 kts 141°
2026-05-07 15:43 52.15231 20.67155 18971 ft 354 kts 141°
2026-05-07 15:43 52.13446 20.69906 18971 ft 354 kts 141°
2026-05-07 15:43 52.11666 20.72644 18970 ft 354 kts 141°
2026-05-07 15:44 52.09878 20.75392 18970 ft 354 kts 141°
2026-05-07 15:44 52.08091 20.78137 18971 ft 353 kts 141°
2026-05-07 15:44 52.06301 20.80880 18971 ft 353 kts 141°
2026-05-07 15:44 52.04512 20.83619 18969 ft 353 kts 141°
2026-05-07 15:45 52.02727 20.86350 18977 ft 353 kts 141°
2026-05-07 15:45 52.00945 20.89071 18976 ft 353 kts 141°
2026-05-07 15:45 51.99155 20.91802 18976 ft 354 kts 141°
2026-05-07 15:45 51.97369 20.94525 18976 ft 354 kts 141°
2026-05-07 15:46 51.93784 20.99978 18975 ft 355 kts 141°
2026-05-07 15:46 51.92006 21.02677 18969 ft 354 kts 141°
2026-05-07 15:46 51.90192 21.05431 18971 ft 354 kts 141°
2026-05-07 15:47 51.88395 21.08154 18972 ft 354 kts 141°
2026-05-07 15:47 51.86881 21.10443 18970 ft 354 kts 141°
2026-05-07 15:47 51.85061 21.13147 18976 ft 353 kts 142°
2026-05-07 15:47 51.83258 21.15799 19017 ft 345 kts 142°
2026-05-07 15:48 51.81547 21.18352 18871 ft 326 kts 142°
2026-05-07 15:48 51.79907 21.20820 18847 ft 324 kts 142°
2026-05-07 15:48 51.78208 21.23358 19110 ft 343 kts 142°
2026-05-07 15:48 51.76436 21.26000 19060 ft 350 kts 142°
2026-05-07 15:49 51.74647 21.28688 18925 ft 349 kts 141°
2026-05-07 15:49 51.72874 21.31355 18922 ft 350 kts 141°
2026-05-07 15:49 51.71096 21.34022 18930 ft 352 kts 141°
2026-05-07 15:49 51.69296 21.36718 18812 ft 353 kts 141°
2026-05-07 15:50 51.67548 21.39433 19020 ft 351 kts 140°
2026-05-07 15:50 51.65789 21.42218 18828 ft 354 kts 140°
2026-05-07 15:50 51.63857 21.44583 18562 ft 347 kts 152°
2026-05-07 15:50 51.61796 21.46580 18333 ft 344 kts 153°
2026-05-07 15:51 51.59733 21.48510 18074 ft 342 kts 154°
2026-05-07 15:51 51.57678 21.50427 17804 ft 341 kts 154°
2026-05-07 15:51 51.55631 21.52344 17537 ft 340 kts 153°
2026-05-07 15:51 51.53591 21.54260 17273 ft 339 kts 153°
2026-05-07 15:52 51.51558 21.56166 17012 ft 338 kts 153°
2026-05-07 15:52 51.50215 21.57426 16843 ft 337 kts 153°
2026-05-07 15:52 51.48197 21.59326 16584 ft 336 kts 153°
2026-05-07 15:52 51.46190 21.61242 16310 ft 335 kts 153°
2026-05-07 15:53 51.44189 21.63152 16057 ft 334 kts 153°
2026-05-07 15:53 51.42193 21.65053 15805 ft 333 kts 153°
2026-05-07 15:53 51.40200 21.66947 15556 ft 332 kts 153°
2026-05-07 15:53 51.38214 21.68831 15306 ft 331 kts 153°
2026-05-07 15:54 51.36237 21.70710 15060 ft 330 kts 153°
2026-05-07 15:54 51.34265 21.72591 14810 ft 328 kts 153°
2026-05-07 15:54 51.32347 21.74422 14548 ft 317 kts 153°
2026-05-07 15:54 51.30487 21.76204 14308 ft 307 kts 153°
2026-05-07 15:55 51.28676 21.77934 14077 ft 300 kts 153°
2026-05-07 15:55 51.26891 21.79633 13844 ft 299 kts 153°
2026-05-07 15:55 51.25097 21.81332 13597 ft 300 kts 153°
2026-05-07 15:55 51.23308 21.83022 13339 ft 300 kts 153°
2026-05-07 15:56 51.21510 21.84722 13072 ft 300 kts 153°
2026-05-07 15:56 51.19719 21.86415 12805 ft 299 kts 153°
2026-05-07 15:56 51.17932 21.88099 12550 ft 298 kts 153°
2026-05-07 15:56 51.16153 21.89772 12274 ft 295 kts 153°
2026-05-07 15:57 51.14403 21.91467 12005 ft 295 kts 147°
2026-05-07 15:57 51.13082 21.93987 11730 ft 304 kts 117°
2026-05-07 15:57 51.12622 21.97280 11528 ft 309 kts 93°
2026-05-07 15:57 51.13003 22.00651 11258 ft 314 kts 68°
2026-05-07 15:58 51.14222 22.03495 11004 ft 312 kts 43°
2026-05-07 15:58 51.15840 22.05670 10785 ft 309 kts 38°
2026-05-07 15:58 51.17355 22.08116 10476 ft 305 kts 59°
2026-05-07 15:58 51.18036 22.11279 10269 ft 303 kts 87°
2026-05-07 15:59 51.18062 22.14516 10065 ft 289 kts 94°
2026-05-07 15:59 51.17988 22.17613 9774 ft 271 kts 94°
2026-05-07 15:59 51.17944 22.20570 9489 ft 256 kts 93°
2026-05-07 15:59 51.17960 22.23298 9227 ft 243 kts 88°
2026-05-07 16:00 51.18151 22.25907 8976 ft 232 kts 82°
2026-05-07 16:00 51.18425 22.28358 8750 ft 221 kts 82°
2026-05-07 16:00 51.18699 22.30788 8557 ft 218 kts 82°
2026-05-07 16:00 51.18948 22.33115 8341 ft 212 kts 83°
2026-05-07 16:01 51.19180 22.35369 8127 ft 201 kts 83°
2026-05-07 16:01 51.19385 22.37480 7902 ft 191 kts 84°
2026-05-07 16:01 51.19579 22.39576 7592 ft 192 kts 85°
2026-05-07 16:01 51.19675 22.41731 7076 ft 198 kts 92°
2026-05-07 16:02 51.19621 22.43910 6551 ft 198 kts 97°
2026-05-07 16:02 51.19694 22.46176 5710 ft 214 kts 82°
2026-05-07 16:02 51.20042 22.48470 5028 ft 215 kts 75°
2026-05-07 16:02 51.20493 22.50772 4144 ft 221 kts 72°
2026-05-07 16:03 51.20970 22.53129 3314 ft 224 kts 73°
2026-05-07 16:03 51.21366 22.55469 2715 ft 215 kts 77°
2026-05-07 16:03 51.21727 22.57671 2262 ft 198 kts 72°
2026-05-07 16:03 51.22135 22.59667 1934 ft 182 kts 71°
2026-05-07 16:04 51.22517 22.61520 1606 ft 171 kts 72°
2026-05-07 16:04 51.22838 22.63268 1353 ft 157 kts 73°
2026-05-07 16:04 51.23076 22.64938 1150 ft 149 kts 73°
2026-05-07 16:04 51.23299 22.66513 1015 ft 143 kts 71°
2026-05-07 16:05 51.23533 22.68049 881 ft 142 kts 73°
2026-05-07 16:05 51.23751 22.69504 685 ft 136 kts 75°
2026-05-07 16:05 51.23948 22.70867 644 ft 112 kts 78°
2026-05-07 16:05 51.24091 22.71874 637 ft 71 kts 76°
2026-05-07 16:06 51.24179 22.72448 641 ft 44 kts 78°
2026-05-07 16:06 51.24235 22.72879 636 ft 22 kts 88°
2026-05-07 16:06 51.24236 22.72954 636 ft 1 kts 27°
2026-05-07 16:06 51.24242 22.72947 636 ft 1 kts 291°
2026-05-07 16:07 51.24237 22.72894 635 ft 9 kts 258°
2026-05-07 16:07 51.24216 22.72743 640 ft 19 kts 258°
2026-05-07 16:07 51.24178 22.72470 641 ft 32 kts 257°
2026-05-07 16:07 51.24127 22.72042 640 ft 46 kts 262°
2026-05-07 16:08 51.24051 22.71549 642 ft 38 kts 255°
2026-05-07 16:08 51.23975 22.71364 646 ft 10 kts 174°
2026-05-07 16:08 51.23899 22.71394 649 ft 14 kts 167°
2026-05-07 16:08 51.23793 22.71433 651 ft 17 kts 167°
2026-05-07 16:09 51.23706 22.71464 651 ft 13 kts 167°
2026-05-07 16:09 51.23656 22.71483 651 ft 0 kts 166°
2026-05-07 16:09 51.23649 22.71485 651 ft 0 kts 168°